Location: Hurstbourne Priors
(51.2000°N, 1.3667°W)
Time: 16:16:18
(UTC+00:00)

Vanguard 3 - Pass Details

Date: 28 April 2021
Orbit: 507 x 3262 km, 33.4° (Epoch: 16 May)

Event Time Altitude Azimuth Distance (km) Brightness Sun altitude
Rises 21:03:27 0° 206° (SSW) 6,057 11.4 -13.6°
Reaches altitude 10° 21:11:15 10° 182° (S) 4,298 10.4 -14.5°
Enters shadow 21:14:02 12° 168° (SSE) 3,836 10.1 -14.8°
Maximum altitude 21:14:56 12° 162° (SSE) 3,724 - -14.9°
Drops below altitude 10° 21:18:05 10° 142° (SE) 3,533 - -15.2°
Sets 21:22:52 0° 113° (ESE) 3,934 - -15.7°
